Flight Track Log - Related Links

Times and Time Zones

All times are in EDT time to prevent confusion due to time zone crossing. See the SWA586 flight status page for this flight to view local times or setup timezone preferences in your user account.

Time Position Orientation Groundspeed Altitude Reporting Facility
EDT Latitude Longitude Course Direction KTS MPH feet Rate Location/Type
12:47PM 31.7981 -106.4039 80° East 181 208 4,600  Level Albuquerque Center
12:48PM 31.7667 -106.3942 165° South 206 237 5,800 1,976 Climbing Albuquerque Center
12:49PM 31.7508 -106.3575 117° Southeast 219 252 7,400 2,327 Climbing Albuquerque Center
12:50PM 31.7236 -106.2872 114° Southeast 252 290 9,600 1,935 Climbing Albuquerque Center
12:51PM 31.7428 -106.2000 75° East 293 337 11,400 1,984 Climbing Albuquerque Center
12:52PM 31.7869 -106.1064 61° Northeast 328 377 13,700 2,419 Climbing Albuquerque Center
12:53PM 31.9646 -105.2810 80° East  Level Estimated
12:53PM 31.7869 -105.9744 90° East 341 392 16,400  Level Albuquerque Center
12:54PM 31.7892 -105.8614 89° East 346 398 18,100 1,694 Climbing Albuquerque Center
12:55PM 31.8031 -105.7431 82° East 362 417 19,900 1,645 Climbing Albuquerque Center
12:56PM 31.8147 -105.6233 83° East 368 423 21,500 1,500 Climbing Albuquerque Center
12:57PM 31.8272 -105.4975 83° East 386 444 23,000 1,548 Climbing Albuquerque Center
12:58PM 31.8381 -105.3728 84° East 384 442 24,700 1,403 Climbing Albuquerque Center
12:59PM 31.8536 -105.2194 83° East 390 449 25,900 1,355 Climbing Albuquerque Center
01:00PM 31.8658 -105.0869 84° East 396 456 27,500 2,081 Climbing Albuquerque Center
01:01PM 31.8778 -104.9544 84° East 401 461 30,200 2,419 Climbing Albuquerque Center
01:02PM 31.8892 -104.8325 84° East 394 453 32,500 1,632 Climbing Albuquerque Center
01:03PM 31.8989 -104.7172 84° East 363 418 33,600 919 Climbing Albuquerque Center
01:04PM 31.9097 -104.5936 84° East 374 430 34,400 829 Climbing Albuquerque Center
01:05PM 31.9222 -104.4672 83° East 384 442 35,300 1,056 Climbing Albuquerque Center
01:06PM 31.9325 -104.3144 85° East 396 456 36,600 816 Climbing Albuquerque Center
01:07PM 31.9447 -104.1864 84° East 395 455 37,000 194 Climbing Albuquerque Center
01:08PM 31.9569 -104.0564 84° East 399 459 37,000  Level Albuquerque Center
01:09PM 31.9653 -103.9342 85° East 401 461 37,000  Level Albuquerque Center
01:10PM 31.9792 -103.7781 84° East 400 460 37,000  Level Albuquerque Center
01:11PM 31.9894 -103.6464 85° East 403 464 37,000  Level Albuquerque Center
01:12PM 32.0003 -103.5139 84° East 407 468 37,000  Level Albuquerque Center
01:13PM 32.0100 -103.3811 85° East 408 470 37,000  Level Albuquerque Center
01:14PM 32.0211 -103.2478 84° East 410 472 37,000  Level Albuquerque Center
01:15PM 32.0317 -103.1061 85° East 410 472 37,000  Level Albuquerque Center
01:16PM 32.0358 -103.0225 87° East 407 468 37,000  Level Fort Worth Center
01:17PM 32.0461 -102.8858 85° East 412 474 37,000  Level Fort Worth Center
01:18PM 32.0581 -102.7494 84° East 412 474 37,000  Level Fort Worth Center
01:19PM 32.0681 -102.6150 85° East 417 480 37,000  Level Fort Worth Center
01:20PM 32.0797 -102.4786 84° East 417 480 37,000  Level Fort Worth Center
01:21PM 32.0897 -102.3369 85° East 422 486 37,000  Level Fort Worth Center
01:22PM 32.0992 -102.1978 85° East 422 486 37,000  Level Fort Worth Center
01:23PM 32.1086 -102.0558 85° East 422 486 37,000  Level Fort Worth Center
01:24PM 32.1181 -101.9142 85° East 422 486 37,000  Level Fort Worth Center
01:25PM 32.1272 -101.7747 86° East 422 486 37,000  Level Fort Worth Center
01:26PM 32.1361 -101.6306 86° East 427 491 37,000  Level Fort Worth Center
01:27PM 32.1450 -101.4861 86° East 432 497 37,000  Level Fort Worth Center
01:28PM 32.1519 -101.3417 87° East 438 504 37,000  Level Fort Worth Center
01:29PM 32.1625 -101.1975 85° East 438 504 37,000  Level Fort Worth Center
01:30PM 32.1689 -101.0531 87° East 438 504 37,000  Level Fort Worth Center
01:31PM 32.1775 -100.8986 86° East 433 498 37,000  Level Fort Worth Center
01:32PM 32.1856 -100.7567 86° East 433 498 37,000  Level Fort Worth Center
01:33PM 32.1956 -100.6122 85° East 433 498 37,000  Level Fort Worth Center
01:34PM 32.2011 -100.4675 87° East 433 498 37,000  Level Fort Worth Center
01:35PM 32.2067 -100.3253 87° East 433 498 37,000  Level Fort Worth Center
01:36PM 32.2161 -100.1808 86° East 439 505 37,000  Level Fort Worth Center
01:37PM 32.2233 -100.0386 87° East 439 505 37,000  Level Fort Worth Center
01:38PM 32.2283 -99.8939 88° East 439 505 37,000  Level Fort Worth Center
01:39PM 32.2311 -99.7489 89° East 439 505 37,000  Level Fort Worth Center
01:40PM 32.2256 -99.6064 93° East 439 505 37,000  Level Fort Worth Center
01:41PM 32.2217 -99.4614 92° East 439 505 37,000  Level Fort Worth Center
01:42PM 32.2156 -99.3164 93° East 439 505 37,000  Level Fort Worth Center
01:43PM 32.2136 -99.1714 91° East 439 505 37,000  Level Fort Worth Center
01:44PM 32.2175 -99.0242 88° East 439 505 37,000 -400 Level Fort Worth Center
01:45PM 32.2422 -98.8822 78° East 439 505 36,200 -1,900 Descending Fort Worth Center
01:46PM 32.2689 -98.7403 77° East 444 511 33,200 -3,100 Descending Fort Worth Center
01:47PM 32.2892 -98.6028 80° East 444 511 30,000 -2,800 Descending Fort Worth Center
01:48PM 32.3092 -98.4728 80° East 419 482 27,600 -2,350 Descending Fort Worth Center
01:49PM 32.3331 -98.3525 77° East 378 435 25,300 -2,100 Descending Fort Worth Center
01:50PM 32.3506 -98.2347 80° East 368 423 23,400 -2,100 Descending Fort Worth Center
01:51PM 32.3722 -98.1144 78° East 368 423 21,100 -2,050 Descending Fort Worth Center
01:52PM 32.3894 -98.0039 80° East 357 411 19,300 -1,900 Descending Fort Worth Center
01:53PM 32.4067 -97.8908 80° East 352 405 17,300 -2,000 Descending Fort Worth Center
01:54PM 32.4236 -97.7800 80° East 352 405 15,300 -2,150 Descending Fort Worth Center
01:55PM 32.4428 -97.6694 78° East 346 398 13,000 -2,050 Descending Fort Worth Center
01:56PM 32.4597 -97.5586 80° East 341 392 11,200 -1,000 Descending Fort Worth Center
01:57PM 32.4994 -97.4750 61° Northeast 300 345 11,000 -100 Descending Fort Worth Center
01:58PM 32.5558 -97.4061 46° Northeast 286 329 11,000  Level Fort Worth Center
01:59PM 32.6119 -97.3369 46° Northeast 286 329 11,000  Level Fort Worth Center
02:00PM 32.6683 -97.2653 47° Northeast 286 329 11,000  Level Fort Worth Center
02:01PM 32.7267 -97.1986 44° Northeast 281 323 11,000  Level Fort Worth Center
02:02PM 32.7892 -97.1711 20° North 235 270 11,000 -800 Level Fort Worth Center
02:03PM 32.8583 -97.1783 355° North 235 270 9,400 -1,650 Descending Fort Worth Center
02:04PM 32.9042 -97.1339 39° Northeast 208 239 7,700 -1,881 Descending Fort Worth Center
02:05PM 32.9333 -97.0500 67° East 240 276 5,700 -1,932 Descending Dallas / Fort Worth TRACON
02:06PM 32.9167 -96.9833 107° East 219 252 3,900 -1,500 Descending Dallas / Fort Worth TRACON
02:07PM 32.9167 -96.9167 90° East 154 177 2,700 -1,200 Descending Dallas / Fort Worth TRACON
02:08PM 32.9000 -96.9000 140° Southeast 138 159 1,500 -950 Descending Dallas / Fort Worth TRACON
02:09PM 32.8667 -96.8667 140° Southeast 137 158 800 -700 Descending Dallas / Fort Worth TRACON
02:11PM 32.8471 -96.8518 73° East  Level Estimated
02:18PM 32.8471 -96.8518 73° East  Level Estimated

Login

Don't have an account? Register now (free) for customized features, flight alerts, and more!